KD8OZS Weather Reports


time (UTC)temp
C
wind
direction
speed
KPH
gust
KPH
rain 1hr
cm
rain 24hr
cm
rain mn
cm
humidity
%
barometer
mb
20260506153155 11 243 0.0 0.0 0.00 1.52 1.52 69 1003.9
20260506152652 11 318 4.8 4.8 0.00 1.52 1.52 71 1003.9
20260506152149 11 266 4.8 4.8 0.00 1.52 1.52 69 1003.9
20260506151648 11 295 3.2 4.8 0.00 1.52 1.52 70 1004.0
20260506151144 11 260 4.8 8.0 0.00 1.52 1.52 69 1004.0
20260506150641 10 268 1.6 3.2 0.00 1.52 1.52 73 1004.0
20260506150138 10 269 3.2 3.2 0.00 1.52 1.52 73 1003.7
20260506145635 10 248 0.0 1.6 0.00 1.52 1.52 73 1003.5
20260506145132 10 298 6.4 9.7 0.00 1.52 1.52 76 1003.4
20260506144630 10 325 6.4 9.7 0.00 1.52 1.52 75 1003.3
20260506144126 10 257 4.8 4.8 0.00 1.52 1.52 78 1003.5
20260506143624 10 246 8.0 9.7 0.00 1.52 1.52 76 1003.5
20260506143122 9 273 3.2 4.8 0.00 1.52 1.52 79 1003.5
20260506142620 9 284 4.8 4.8 0.00 1.52 1.52 79 1003.6
20260506142118 9 230 1.6 1.6 0.00 1.52 1.52 82 1003.4
20260506141615 8 261 3.2 3.2 0.00 1.52 1.52 83 1003.4
20260506141113 8 313 6.4 8.0 0.00 1.52 1.52 83 1003.2
20260506140610 8 249 1.6 1.6 0.00 1.52 1.52 83 1003.2
20260506140107 8 259 1.6 3.2 0.00 1.52 1.52 85 1003.0
20260506135604 8 246 0.0 1.6 0.00 1.52 1.52 86 1003.3
20260506135100 8 243 1.6 3.2 0.00 1.52 1.52 88 1003.3
20260506134557 8 244 0.0 1.6 0.00 1.52 1.52 89 1003.3
20260506134053 7 258 1.6 3.2 0.00 1.52 1.52 89 1003.2
20260506133550 7 236 1.6 1.6 0.00 1.52 1.52 90 1003.2
20260506133047 7 258 3.2 3.2 0.00 1.52 1.52 91 1003.0
20260506132544 7 233 1.6 1.6 0.00 1.52 1.52 91 1003.1
20260506132042 7 243 0.0 0.0 0.00 1.52 1.52 92 1003.0
20260506131539 7 249 1.6 1.6 0.00 1.52 1.52 92 1003.1
20260506131035 7 245 0.0 0.0 0.00 1.52 1.52 92 1003.0
20260506130532 7 247 1.6 1.6 0.00 1.52 1.52 93 1002.5
20260506130029 7 242 0.0 0.0 0.00 1.52 1.52 93 1002.5
20260506125528 7 242 0.0 1.6 0.00 1.52 1.52 93 1002.4
20260506125025 7 259 1.6 1.6 0.00 1.52 1.52 93 1002.4
20260506124523 7 241 0.0 1.6 0.00 1.52 1.52 94 1002.3
20260506124020 6 248 1.6 1.6 0.00 1.52 1.52 94 1002.3
20260506123518 6 253 1.6 1.6 0.00 1.52 1.52 95 1002.1
20260506123016 6 244 0.0 1.6 0.00 1.52 1.52 96 1001.9
20260506122512 6 259 3.2 3.2 0.00 1.52 1.52 96 1002.2
20260506122011 6 249 0.0 0.0 0.00 1.52 1.52 97 1002.0
20260506121508 6 281 3.2 3.2 0.00 1.52 1.52 97 1001.7
20260506121004 7 244 0.0 0.0 0.00 1.52 1.52 97 1001.6
20260506120502 7 240 0.0 0.0 0.00 1.52 1.52 97 1001.6
20260506115959 6 240 0.0 0.0 0.00 1.52 1.52 97 1001.7
20260506115457 6 254 1.6 1.6 0.00 1.52 1.52 97 1001.3
20260506114955 6 244 1.6 1.6 0.00 1.52 1.52 97 1001.5
20260506114452 6 293 1.6 3.2 0.00 1.52 1.52 97 1001.4
20260506113951 6 274 4.8 4.8 0.00 1.52 1.52 98 1001.7
20260506113448 6 274 3.2 4.8 0.00 1.52 1.52 98 1001.4
20260506112944 6 256 3.2 4.8 0.00 1.52 1.52 98 1001.5
20260506112442 6 243 1.6 1.6 0.00 1.52 1.52 98 1001.8
20260506111939 6 250 1.6 1.6 0.00 1.52 1.52 98 1001.8
20260506111437 6 260 1.6 1.6 0.00 1.52 1.52 98 1001.7
20260506110934 6 241 1.6 1.6 0.00 1.52 1.52 98 1001.5
20260506110432 6 244 0.0 0.0 0.00 1.52 1.52 98 1001.1
20260506105928 6 241 0.0 0.0 0.00 1.52 1.52 98 1000.9
20260506105424 6 243 0.0 1.6 0.00 1.52 1.52 98 1001.3
20260506104922 6 250 0.0 0.0 0.00 1.52 1.52 98 1000.9
20260506104420 6 240 0.0 0.0 0.00 1.52 1.52 98 1001.4
20260506103918 6 249 1.6 1.6 0.00 1.52 1.52 98 1001.5
20260506103415 6 246 1.6 1.6 0.00 1.52 1.52 98 1001.0
20260506102912 6 277 1.6 1.6 0.00 1.52 1.52 98 1000.3
20260506102410 6 247 1.6 1.6 0.00 1.52 1.52 98 1000.7
20260506101907 6 246 1.6 1.6 0.00 1.52 1.52 98 1000.3
20260506101403 6 249 1.6 1.6 0.00 1.52 1.52 98 1000.0
20260506100900 6 241 1.6 1.6 0.00 1.52 1.52 98 999.6
20260506100359 6 258 3.2 3.2 0.00 1.52 1.52 98 999.5
20260506095856 6 244 0.0 0.0 0.00 1.52 1.52 98 1000.0
20260506095355 6 244 0.0 0.0 0.00 1.52 1.52 98 999.9
20260506094850 6 246 0.0 0.0 0.00 1.52 1.52 98 999.6
20260506094349 6 242 0.0 0.0 0.00 1.52 1.52 98 999.5
20260506093847 6 241 0.0 0.0 0.18 1.52 1.52 98 999.6
20260506093344 6 257 1.6 1.6 0.18 1.52 1.52 98 1000.0
20260506092842 6 233 0.0 0.0 0.00 1.50 1.50 98 1000.2
20260506092340 6 243 0.0 0.0 0.00 1.50 1.50 98 1000.5
20260506091836 6 247 0.0 0.0 0.13 1.50 1.50 98 1000.2
20260506091334 6 250 1.6 3.2 0.13 1.50 1.50 97 1000.4
20260506090831 6 254 0.0 0.0 0.00 1.47 1.47 97 1000.3
20260506090328 6 290 3.2 4.8 0.00 1.47 1.47 97 1000.4
20260506085825 6 254 0.0 1.6 0.18 1.47 1.47 97 1000.4
20260506085321 6 263 1.6 1.6 0.30 1.47 1.47 97 1000.3
20260506084818 6 287 0.0 1.6 0.13 1.45 1.45 97 1000.4
20260506084315 6 245 0.0 1.6 0.18 1.42 1.42 97 1000.7
20260506083811 6 255 1.6 1.6 0.18 1.42 1.42 97 1000.6
20260506083309 6 242 0.0 0.0 0.00 1.40 1.40 97 1000.4
20260506082806 6 249 0.0 0.0 0.00 1.40 1.40 97 1000.6
20260506082304 6 251 0.0 0.0 0.00 1.40 1.40 97 1000.6
20260506081759 6 277 3.2 3.2 0.18 1.40 1.40 97 1000.6
20260506081257 6 358 6.4 8.0 0.18 1.40 1.40 97 1000.2
20260506080755 6 256 1.6 1.6 0.13 1.37 1.37 97 1000.3
20260506080251 6 338 4.8 8.0 0.30 1.37 1.37 97 1000.2
20260506073235 6 287 4.8 4.8 0.43 1.27 1.27 97 1000.2
20260506072731 6 247 1.6 3.2 0.48 1.24 1.24 97 1000.2
20260506072229 6 297 3.2 3.2 0.48 1.19 1.19 97 999.8
20260506071727 6 250 4.8 4.8 0.43 1.17 1.17 97 1000.2
20260506071224 6 234 1.6 1.6 0.48 1.12 1.12 97 1000.1
20260506070721 6 271 3.2 3.2 0.66 1.09 1.09 97 1000.0
20260506070218 7 248 1.6 1.6 0.43 1.04 1.04 97 1000.1
20260506062155 8 245 0.0 0.0 0.43 0.71 0.71 98 999.5
20260506061651 8 247 1.6 3.2 0.48 0.69 0.69 98 999.5
20260506061148 8 256 1.6 1.6 0.48 0.64 0.64 98 999.7
20260506060647 8 246 0.0 0.0 0.43 0.61 0.61 98 999.8
20260506060143 8 272 1.6 3.2 0.43 0.56 0.56 98 999.7
20260506051115 9 269 1.6 3.2 0.00 0.13 0.13 98 1000.1
20260506050614 9 261 3.2 3.2 0.00 0.13 0.13 98 1000.4
20260506050111 9 254 1.6 1.6 0.00 0.13 0.13 98 1000.3
20260506045104 9 264 1.6 1.6 0.18 0.13 0.13 98 1000.3
20260506044602 9 282 1.6 3.2 0.13 0.10 0.10 98 1000.2
20260506044058 9 245 1.6 1.6 0.13 0.10 0.10 98 1000.4
20260506043556 9 319 4.8 4.8 0.18 0.08 0.08 98 1000.4
20260506043054 9 331 4.8 4.8 0.18 0.08 0.08 98 1000.6
20260506042553 9 264 0.0 0.0 0.13 0.05 0.05 98 1000.4
20260506042050 9 289 1.6 3.2 0.13 0.05 0.05 98 1000.4
20260506041549 9 252 0.0 0.0 0.18 0.03 0.03 98 1000.4
20260506041045 9 276 3.2 3.2 0.18 0.03 0.03 98 1000.4
20260506040543 9 242 0.0 0.0 0.30 0.03 0.03 98 1000.5
20260506040039 9 284 3.2 3.2 0.30 0.00 0.00 98 1000.6
20260506035536 9 264 0.0 1.6 0.30 2.59 2.59 98 1000.9
20260506035033 9 246 0.0 0.0 0.30 2.57 2.57 98 1001.0
20260506034530 9 244 0.0 0.0 0.48 2.54 2.54 98 1001.0
20260506034027 9 243 0.0 0.0 0.61 2.51 2.51 98 1000.9
20260506033524 9 244 0.0 0.0 0.48 2.46 2.46 98 1000.9
20260506033021 9 229 3.2 3.2 0.30 2.41 2.41 98 1001.2
20260506032519 10 288 1.6 1.6 0.30 2.39 2.39 98 1001.1
20260506032015 10 299 3.2 3.2 0.30 2.36 2.36 98 1001.1
20260506031513 10 237 1.6 3.2 0.30 2.34 2.34 98 1001.2
20260506031009 10 256 1.6 1.6 0.30 2.31 2.31 98 1000.7
20260506030508 10 251 1.6 1.6 0.30 2.29 2.29 98 1000.9
20260506030005 10 256 1.6 1.6 0.30 2.26 2.26 98 1000.7
20260506025501 10 248 0.0 0.0 0.30 2.24 2.24 98 1000.7
20260506024957 10 251 1.6 1.6 0.48 2.21 2.21 98 1000.7
20260506024454 10 250 0.0 0.0 0.30 2.18 2.18 98 1000.6
20260506023950 10 251 1.6 1.6 0.30 2.13 2.13 98 1001.0
20260506023447 10 250 0.0 0.0 0.30 2.13 2.13 98 1000.9
20260506022944 10 252 0.0 1.6 0.36 2.11 2.11 98 1001.0
20260506022442 10 250 1.6 1.6 0.18 2.08 2.08 98 1000.9
20260506021940 10 248 0.0 0.0 0.13 2.06 2.06 98 1000.7
20260506021436 10 250 1.6 1.6 0.13 2.06 2.06 98 1001.0
20260506020933 10 245 3.2 3.2 0.00 2.03 2.03 98 1001.1
20260506020431 11 243 1.6 3.2 0.18 2.03 2.03 98 1000.9
20260506015928 11 343 4.8 8.0 0.13 2.01 2.01 98 1000.7
20260506015426 11 248 1.6 1.6 0.13 2.01 2.01 98 1000.9
20260506014922 11 201 1.6 3.2 0.18 1.98 1.98 98 1000.7
20260506014420 11 263 3.2 3.2 0.30 1.98 1.98 98 1000.5
20260506013916 11 250 0.0 1.6 0.43 1.96 1.96 98 1000.7
20260506013414 13 301 8.0 11.3 0.61 1.93 1.93 97 1000.5
20260506012910 13 257 1.6 1.6 0.89 1.91 1.91 98 1000.4
20260506012407 13 250 1.6 1.6 0.97 1.83 1.83 98 1000.4
20260506011904 13 247 0.0 0.0 1.37 1.75 1.75 98 999.9
20260506011401 13 248 0.0 0.0 1.27 1.65 1.65 98 999.9
20260506010858 13 246 0.0 0.0 0.79 1.52 1.52 98 999.7
20260506010356 13 246 0.0 0.0 0.61 1.45 1.45 97 999.6
20260506005853 13 245 0.0 0.0 0.43 1.40 1.40 97 999.8
20260506005350 13 245 0.0 0.0 0.13 1.35 1.35 97 999.9
20260506004845 13 247 0.0 0.0 0.18 1.32 1.32 97 999.8
20260506004343 13 242 0.0 0.0 0.30 1.30 1.30 97 999.7
20260506003839 13 246 0.0 0.0 0.30 1.30 1.30 97 999.9
20260506003336 13 248 0.0 0.0 0.00 1.24 1.24 97 999.9
20260506002832 13 245 0.0 0.0 0.13 1.24 1.24 97 1000.0
20260506002329 13 239 1.6 1.6 0.30 1.24 1.24 97 999.7
20260506001824 14 246 0.0 0.0 0.30 1.22 1.22 97 999.6
20260506001322 14 248 3.2 3.2 0.61 1.19 1.19 97 999.8
20260506000818 14 236 0.0 1.6 0.66 1.17 1.17 97 999.9
20260506000316 14 248 0.0 0.0 0.30 1.09 1.09 97 999.8
20260505235813 14 246 0.0 0.0 0.30 1.07 1.07 97 1000.1
20260505235310 14 247 0.0 0.0 0.30 1.04 1.04 97 999.8
20260505234807 14 245 1.6 1.6 0.30 1.02 1.02 97 999.9
20260505234305 14 242 1.6 1.6 0.13 0.97 0.97 97 1000.0
20260505233802 14 247 0.0 0.0 0.13 0.97 0.97 97 1000.0
20260505233259 14 245 0.0 0.0 0.00 0.94 0.94 96 1000.1
20260505232756 14 250 0.0 0.0 0.00 0.94 0.94 96 999.9
20260505232254 14 245 0.0 0.0 0.18 0.94 0.94 96 1000.1
20260505231750 14 240 0.0 0.0 0.18 0.94 0.94 96 1000.1
20260505231249 14 249 0.0 0.0 0.00 0.91 0.91 96 1000.2
20260505230747 14 249 0.0 0.0 0.13 0.91 0.91 96 1000.1
20260505230243 14 249 0.0 0.0 0.13 0.91 0.91 96 1000.1
20260505225740 14 246 0.0 0.0 0.18 0.89 0.89 96 1000.1
20260505225237 14 246 0.0 0.0 0.18 0.89 0.89 96 1000.3
20260505224732 14 244 0.0 0.0 0.48 0.86 0.86 96 1000.1
20260505224230 14 244 0.0 0.0 0.61 0.86 0.86 95 1000.3
20260505223727 15 244 1.6 1.6 0.61 0.81 0.81 95 1000.3
20260505223224 15 243 0.0 1.6 0.89 0.76 0.76 95 1000.5
20260505222720 15 249 0.0 1.6 2.59 0.71 0.71 94 1000.6
20260505222216 15 246 1.6 1.6 2.77 0.58 0.58 93 1000.4
20260505221713 15 262 3.2 3.2 0.97 0.28 0.28 93 1000.4
20260505221210 15 258 1.6 3.2 0.30 0.15 0.15 92 1000.4
20260505220707 15 249 0.0 0.0 0.13 0.13 0.13 91 1000.0
20260505220205 15 246 0.0 0.0 0.18 0.10 0.10 91 999.9
20260505215702 16 252 0.0 1.6 0.30 0.10 0.10 89 999.8
20260505215200 16 251 0.0 0.0 0.13 0.08 0.08 88 999.7
20260505214657 16 247 0.0 0.0 0.00 0.05 0.05 86 999.6
20260505214154 16 248 1.6 1.6 0.00 0.05 0.05 86 999.5
20260505213652 16 251 0.0 0.0 0.00 0.05 0.05 86 999.6
20260505213149 17 251 1.6 1.6 0.00 0.05 0.05 85 999.6
20260505212644 17 257 1.6 1.6 0.00 0.05 0.05 84 999.8
20260505212142 17 252 0.0 0.0 0.00 0.05 0.05 85 999.7
20260505211639 17 270 1.6 1.6 0.00 0.05 0.05 84 999.7
20260505211136 17 251 0.0 0.0 0.00 0.05 0.05 84 999.9
20260505210633 17 288 3.2 3.2 0.00 0.05 0.05 84 999.7
20260505210130 17 255 1.6 3.2 0.00 0.05 0.05 83 999.8
20260505205627 17 247 1.6 1.6 0.00 0.05 0.05 82 999.9
20260505205125 17 244 0.0 0.0 0.00 0.05 0.05 82 999.8
20260505204622 17 247 0.0 0.0 0.00 0.05 0.05 82 1000.0
20260505204119 17 247 0.0 0.0 0.00 0.05 0.05 82 999.9
20260505203616 18 250 1.6 1.6 0.00 0.05 0.05 81 1000.0
20260505203113 17 252 1.6 1.6 0.00 0.05 0.05 81 1000.0
20260505202609 17 245 1.6 1.6 0.00 0.05 0.05 81 1000.0
20260505202105 17 245 1.6 1.6 0.00 0.05 0.05 81 1000.0
20260505201602 17 254 1.6 1.6 0.00 0.05 0.05 80 1000.0
20260505201059 17 245 0.0 1.6 0.00 0.05 0.05 78 1000.3
20260505200557 17 248 3.2 3.2 0.00 0.05 0.05 77 1000.1
20260505200054 18 248 3.2 3.2 0.00 0.05 0.05 77 1000.0
20260505195550 18 250 0.0 0.0 0.00 0.05 0.05 76 1000.3
20260505195048 18 248 0.0 1.6 0.00 0.05 0.05 76 1000.2
20260505194545 18 239 1.6 1.6 0.00 0.05 0.05 75 1000.3
20260505194040 18 242 3.2 3.2 0.00 0.05 0.05 74 1000.4
20260505193537 18 241 0.0 1.6 0.00 0.05 0.05 76 1000.4
20260505193034 18 242 0.0 0.0 0.00 0.05 0.05 75 1000.4
20260505192533 18 242 0.0 1.6 0.00 0.05 0.05 74 1000.1
20260505192030 18 242 0.0 1.6 0.00 0.05 0.05 74 1000.2
20260505191528 18 243 0.0 0.0 0.00 0.05 0.05 75 1000.4
20260505191026 18 247 0.0 0.0 0.00 0.05 0.05 73 1000.4
20260505190520 19 231 1.6 3.2 0.00 0.05 0.05 71 1000.1
20260505190017 19 246 0.0 0.0 0.00 0.05 0.05 70 1000.3
20260505185514 19 242 1.6 1.6 0.00 0.05 0.05 68 1000.4
20260505185010 20 240 1.6 3.2 0.00 0.05 0.05 67 1000.3
20260505184507 20 250 0.0 1.6 0.00 0.05 0.05 67 1000.2
20260505184004 19 245 0.0 1.6 0.00 0.05 0.05 68 1000.3
20260505183501 19 252 1.6 1.6 0.00 0.05 0.05 69 1000.5
20260505182957 19 233 3.2 3.2 0.00 0.05 0.05 68 1000.4
20260505182454 19 252 1.6 1.6 0.00 0.05 0.05 69 1000.7
20260505181950 19 240 1.6 1.6 0.00 0.05 0.05 67 1000.9
20260505181448 19 242 1.6 1.6 0.00 0.05 0.05 67 1000.6
20260505180945 20 232 4.8 4.8 0.00 0.05 0.05 66 1000.9
20260505180441 20 245 4.8 4.8 0.00 0.05 0.05 67 1000.7
20260505175938 20 241 3.2 3.2 0.00 0.05 0.05 66 1000.9
20260505175434 20 239 1.6 3.2 0.00 0.05 0.05 67 1000.7
20260505174930 20 233 3.2 4.8 0.00 0.05 0.05 67 1000.7
20260505174428 19 226 3.2 4.8 0.00 0.05 0.05 69 1000.7
20260505173924 19 241 3.2 3.2 0.00 0.05 0.05 69 1000.7
20260505173420 19 240 4.8 8.0 0.00 0.05 0.05 69 1001.1
20260505172918 19 267 4.8 8.0 0.00 0.05 0.05 69 1001.0
20260505172416 19 266 1.6 3.2 0.00 0.05 0.05 71 1000.9
20260505171915 19 244 4.8 8.0 0.00 0.05 0.05 69 1001.0
20260505171412 19 232 4.8 4.8 0.00 0.05 0.05 69 1000.7
20260505170909 19 242 8.0 9.7 0.00 0.05 0.05 68 1001.0
20260505170406 18 250 6.4 9.7 0.00 0.05 0.05 70 1001.0
20260505165901 19 252 1.6 3.2 0.00 0.05 0.05 70 1001.3
20260505165356 19 249 1.6 3.2 0.00 0.05 0.05 68 1001.2
20260505164852 20 257 3.2 3.2 0.00 0.05 0.05 68 1001.2
20260505164349 19 248 4.8 8.0 0.00 0.05 0.05 67 1001.1
20260505163847 20 245 4.8 4.8 0.00 0.05 0.05 68 1001.1
20260505163346 20 242 1.6 3.2 0.00 0.05 0.05 67 1001.1
20260505162844 20 219 11.3 16.1 0.00 0.05 0.05 66 1001.2
20260505162340 20 276 4.8 8.0 0.00 0.05 0.05 66 1001.1
20260505161837 20 245 1.6 3.2 0.00 0.05 0.05 67 1001.1
20260505161334 20 242 1.6 1.6 0.00 0.05 0.05 65 1000.9
20260505160831 20 222 6.4 9.7 0.00 0.05 0.05 65 1000.9
20260505160329 20 225 6.4 9.7 0.00 0.05 0.05 65 1000.6